sat.trackr.live / text

‹ back to catalog

DISCO-2

NORAD 68431 · 2026-067R

PAYLOAD ACTIVE UNKNOWN

§ Identity

Operator
Country
DEN
Launch date
2026-03-30
Launch site
AFWTR
Launch vehicle
Mass (kg)
RCS (m²)

External: N2YO · Heavens-Above · Gunter

§ Orbital elements

Epoch: 2026-05-24T20:39:59.682816Z

Period
94.82 min
Inclination
97.4588°
Eccentricity
0.0004373
Mean motion
15.18659766 rev/d
Perigee alt
506.9 km
Apogee alt
512.9 km
Semi-major
6,888.0 km
B*
3.1998e-4
RAAN
103.7383°
Arg perigee
82.7637°
Mean anomaly
277.4095°
Rev number
840

§ Raw data

DISCO-21 68431U 26067R   26144.86110744  .00006565  00000+0  31998-3 0  99952 68431  97.4588 103.7383 0004373  82.7637 277.4095 15.18659766  8400

JSON: /api/v1/satellites/68431 · /tle

For live sub-satellite position, see the globe view (requires WebGL).

§ Visibility from observer

Set your observer location to see the next 7 days of passes ≥ 10°. The values pass through the URL so the page stays shareable.

No JS? Fill the form by hand. The geolocation button needs JavaScript.